| time (UTC) | temp F | wind direction | speed knots | gust knots | rain 1hr in | rain 24hr in | rain mn in | humidity % | barometer mb |
| 20260903162743 | 84 | 189 | 0.0 | 1.7 | 0.00 | 0.00 | 0.00 | 65 | 1010.3 |
| 20260903162514 | 84 | 0 | 0.0 | 1.7 | 0.00 | 0.00 | 0.00 | 65 | 1010.4 |
| 20260903162011 | 84 | 167 | 0.0 | 2.6 | 0.00 | 0.00 | 0.00 | 65 | 1010.5 |
| 20260903161241 | 84 | 249 | 0.0 | 2.6 | 0.00 | 0.00 | 0.00 | 66 | 1010.5 |
| 20260903160738 | 83 | 93 | 0.0 | 2.6 | 0.00 | 0.00 | 0.00 | 65 | 1010.5 |
| 20260903160237 | 84 | 252 | 0.0 | 0.9 | 0.00 | 0.00 | 0.00 | 65 | 1010.5 |
| 20260903155737 | 84 | 305 | 0.0 | 1.7 | 0.00 | 0.00 | 0.00 | 66 | 1010.5 |
| 20260903155237 | 84 | 145 | 0.0 | 2.6 | 0.00 | 0.00 | 0.00 | 65 | 1010.4 |
| 20260903154738 | 83 | 204 | 0.9 | 3.5 | 0.00 | 0.00 | 0.00 | 64 | 1010.3 |
| 20260903154508 | 83 | 83 | 0.9 | 6.1 | 0.00 | 0.00 | 0.00 | 65 | 1010.3 |
| 20260903153736 | 83 | 325 | 0.9 | 6.1 | 0.00 | 0.00 | 0.00 | 67 | 1010.3 |
| 20260903153234 | 83 | 231 | 0.9 | 3.5 | 0.00 | 0.00 | 0.00 | 68 | 1010.5 |
| 20260903152734 | 83 | 115 | 0.0 | 3.5 | 0.00 | 0.00 | 0.00 | 69 | 1010.5 |
| 20260903152233 | 83 | 173 | 0.0 | 1.7 | 0.00 | 0.00 | 0.00 | 69 | 1010.4 |
| 20260903152006 | 82 | 115 | 0.9 | 6.1 | 0.00 | 0.00 | 0.00 | 70 | 1010.3 |
| 20260903151231 | 82 | 266 | 0.9 | 6.1 | 0.00 | 0.00 | 0.00 | 72 | 1010.4 |
| 20260903150731 | 81 | 232 | 0.0 | 2.6 | 0.00 | 0.00 | 0.00 | 73 | 1010.4 |
| 20260903150228 | 80 | 106 | 0.0 | 3.5 | 0.00 | 0.00 | 0.00 | 76 | 1010.3 |
| 20260903145729 | 79 | 125 | 0.0 | 3.5 | 0.00 | 0.00 | 0.00 | 78 | 1010.4 |
| 20260903145225 | 78 | 122 | 0.0 | 0.9 | 0.00 | 0.00 | 0.00 | 82 | 1010.4 |
| 20260903144726 | 77 | 87 | 0.0 | 0.9 | 0.00 | 0.00 | 0.00 | 84 | 1010.4 |
| 20260903144226 | 77 | 339 | 0.0 | 0.9 | 0.00 | 0.00 | 0.00 | 85 | 1010.4 |
| 20260903143725 | 76 | 243 | 0.0 | 0.9 | 0.00 | 0.00 | 0.00 | 86 | 1010.5 |
| 20260903143225 | 76 | 125 | 0.0 | 1.7 | 0.00 | 0.00 | 0.00 | 87 | 1010.5 |
| 20260903142724 | 75 | 217 | 0.0 | 1.7 | 0.00 | 0.00 | 0.00 | 87 | 1010.5 |
| 20260903142217 | 75 | 104 | 0.0 | 0.9 | 0.00 | 0.00 | 0.00 | 87 | 1010.5 |
| 20260903141711 | 75 | 105 | 0.0 | 0.0 | 0.00 | 0.00 | 0.00 | 88 | 1010.5 |
| 20260903141436 | 74 | 114 | 0.0 | 1.7 | 0.00 | 0.00 | 0.00 | 89 | 1010.6 |
| 20260903140931 | 74 | 114 | 0.0 | 1.7 | 0.00 | 0.00 | 0.00 | 89 | 1010.6 |
| 20260903140200 | 74 | 318 | 0.0 | 0.9 | 0.00 | 0.00 | 0.00 | 89 | 1010.7 |
| 20260903135701 | 73 | 56 | 0.0 | 0.9 | 0.00 | 0.00 | 0.00 | 89 | 1010.8 |
| 20260903135200 | 73 | 44 | 0.0 | 1.7 | 0.00 | 0.00 | 0.00 | 89 | 1010.8 |
| 20260903134701 | 73 | 97 | 0.0 | 2.6 | 0.00 | 0.00 | 0.00 | 89 | 1010.9 |
| 20260903134200 | 73 | 144 | 0.0 | 2.6 | 0.00 | 0.00 | 0.00 | 89 | 1010.8 |
| 20260903133659 | 73 | 113 | 0.0 | 0.9 | 0.00 | 0.00 | 0.00 | 90 | 1010.8 |
| 20260903133158 | 72 | 343 | 0.0 | 0.9 | 0.00 | 0.00 | 0.00 | 90 | 1010.9 |
| 20260903132928 | 72 | 100 | 0.0 | 0.9 | 0.00 | 0.00 | 0.00 | 90 | 1010.9 |
| 20260903132157 | 72 | 77 | 0.0 | 0.9 | 0.00 | 0.00 | 0.00 | 90 | 1010.8 |
| 20260903131655 | 71 | 75 | 0.0 | 1.7 | 0.00 | 0.00 | 0.00 | 90 | 1010.8 |
| 20260903131155 | 71 | 20 | 0.0 | 1.7 | 0.00 | 0.00 | 0.00 | 90 | 1010.7 |
| 20260903130655 | 71 | 43 | 0.0 | 1.7 | 0.00 | 0.00 | 0.00 | 90 | 1010.8 |
| 20260903130155 | 71 | 1 | 0.0 | 0.9 | 0.00 | 0.00 | 0.00 | 91 | 1010.7 |
| 20260903125656 | 71 | 49 | 0.0 | 2.6 | 0.00 | 0.00 | 0.00 | 91 | 1010.7 |
| 20260903125200 | 70 | 11 | 0.0 | 0.9 | 0.00 | 0.00 | 0.00 | 91 | 1010.9 |
| 20260903125155 | 70 | 80 | 0.0 | 2.6 | 0.00 | 0.00 | 0.00 | 91 | 1010.8 |
| 20260903124156 | 70 | 20 | 0.0 | 0.9 | 0.00 | 0.00 | 0.00 | 91 | 1010.8 |
| 20260903123650 | 70 | 129 | 0.0 | 0.9 | 0.00 | 0.00 | 0.00 | 91 | 1010.8 |
| 20260903123143 | 70 | 130 | 0.0 | 0.9 | 0.00 | 0.00 | 0.00 | 91 | 1010.9 |
| 20260903122638 | 70 | 145 | 0.0 | 0.0 | 0.00 | 0.00 | 0.00 | 91 | 1010.7 |
| 20260903122132 | 70 | 145 | 0.0 | 0.9 | 0.00 | 0.00 | 0.00 | 91 | 1010.8 |
| 20260903121625 | 70 | 145 | 0.0 | 0.9 | 0.00 | 0.00 | 0.00 | 91 | 1010.8 |
| 20260903121120 | 70 | 103 | 0.0 | 0.9 | 0.00 | 0.00 | 0.00 | 91 | 1010.7 |
| 20260903120613 | 70 | 115 | 0.0 | 0.9 | 0.00 | 0.00 | 0.00 | 91 | 1010.7 |
| 20260903120108 | 70 | 114 | 0.0 | 0.9 | 0.00 | 0.00 | 0.00 | 91 | 1010.7 |
| 20260903115834 | 70 | 107 | 0.0 | 0.9 | 0.00 | 0.00 | 0.00 | 91 | 1010.6 |
| 20260903115055 | 69 | 15 | 0.0 | 0.9 | 0.00 | 0.00 | 0.00 | 91 | 1010.7 |
| 20260903114549 | 69 | 9 | 0.0 | 0.9 | 0.00 | 0.00 | 0.00 | 92 | 1010.7 |
| 20260903114043 | 69 | 105 | 0.0 | 0.0 | 0.00 | 0.00 | 0.00 | 92 | 1010.7 |
| 20260903113545 | 69 | 103 | 0.0 | 0.0 | 0.00 | 0.00 | 0.00 | 92 | 1010.7 |
| 20260903113042 | 69 | 103 | 0.0 | 0.0 | 0.00 | 0.00 | 0.00 | 92 | 1010.6 |
| 20260903112541 | 69 | 97 | 0.0 | 0.9 | 0.00 | 0.00 | 0.00 | 92 | 1010.7 |
| 20260903112037 | 69 | 207 | 0.0 | 0.9 | 0.00 | 0.00 | 0.00 | 92 | 1010.7 |
| 20260903111806 | 69 | 15 | 0.0 | 0.9 | 0.00 | 0.00 | 0.00 | 92 | 1010.6 |
| 20260903111033 | 69 | 24 | 0.0 | 0.9 | 0.00 | 0.00 | 0.00 | 92 | 1010.6 |
| 20260903110533 | 69 | 25 | 0.0 | 0.9 | 0.00 | 0.00 | 0.00 | 92 | 1010.7 |
| 20260903110031 | 69 | 17 | 0.0 | 0.0 | 0.00 | 0.00 | 0.00 | 92 | 1010.8 |
| 20260903105530 | 69 | 17 | 0.0 | 0.0 | 0.00 | 0.00 | 0.00 | 92 | 1010.8 |
| 20260903105301 | 69 | 17 | 0.0 | 0.0 | 0.00 | 0.00 | 0.00 | 92 | 1010.8 |
| 20260903104524 | 69 | 17 | 0.0 | 0.0 | 0.00 | 0.00 | 0.00 | 92 | 1010.8 |
| 20260903104021 | 69 | 17 | 0.0 | 0.0 | 0.00 | 0.00 | 0.00 | 92 | 1010.7 |
| 20260903103753 | 69 | 18 | 0.0 | 0.9 | 0.00 | 0.00 | 0.00 | 92 | 1010.6 |
| 20260903103021 | 69 | 17 | 0.0 | 0.9 | 0.00 | 0.00 | 0.00 | 92 | 1010.6 |
| 20260903102519 | 69 | 18 | 0.0 | 0.0 | 0.00 | 0.00 | 0.00 | 92 | 1010.6 |
| 20260903102024 | 69 | 18 | 0.0 | 0.0 | 0.00 | 0.00 | 0.00 | 92 | 1010.4 |
| 20260903102019 | 69 | 18 | 0.0 | 0.0 | 0.00 | 0.00 | 0.00 | 92 | 1010.5 |
| 20260903101024 | 69 | 17 | 0.0 | 0.0 | 0.00 | 0.00 | 0.00 | 91 | 1010.5 |
| 20260903101019 | 69 | 17 | 0.0 | 0.0 | 0.00 | 0.00 | 0.00 | 92 | 1010.5 |
| 20260903100016 | 69 | 17 | 0.0 | 0.0 | 0.00 | 0.00 | 0.00 | 91 | 1010.5 |
| 20260903095518 | 69 | 17 | 0.0 | 0.0 | 0.00 | 0.00 | 0.00 | 91 | 1010.4 |
| 20260903095012 | 69 | 17 | 0.0 | 0.0 | 0.00 | 0.00 | 0.00 | 91 | 1010.3 |
| 20260903094506 | 69 | 37 | 0.0 | 0.0 | 0.00 | 0.00 | 0.00 | 91 | 1010.4 |
| 20260903094233 | 69 | 12 | 0.0 | 0.0 | 0.00 | 0.00 | 0.00 | 91 | 1010.5 |
| 20260903093455 | 69 | 12 | 0.0 | 0.0 | 0.00 | 0.00 | 0.00 | 91 | 1010.4 |
| 20260903092948 | 69 | 13 | 0.0 | 0.0 | 0.00 | 0.00 | 0.00 | 91 | 1010.4 |
| 20260903092713 | 69 | 13 | 0.0 | 0.0 | 0.00 | 0.00 | 0.00 | 91 | 1010.5 |
| 20260903091937 | 69 | 6 | 0.0 | 1.7 | 0.00 | 0.00 | 0.00 | 91 | 1010.3 |
| 20260903091430 | 69 | 7 | 0.0 | 1.7 | 0.00 | 0.00 | 0.00 | 91 | 1010.4 |
| 20260903090925 | 69 | 24 | 0.0 | 0.0 | 0.00 | 0.00 | 0.00 | 90 | 1010.5 |
| 20260903090418 | 69 | 26 | 0.0 | 0.9 | 0.00 | 0.00 | 0.00 | 90 | 1010.6 |
| 20260903085913 | 69 | 12 | 0.0 | 0.9 | 0.00 | 0.00 | 0.00 | 90 | 1010.3 |
| 20260903085406 | 69 | 345 | 0.0 | 0.0 | 0.00 | 0.00 | 0.00 | 90 | 1010.3 |
| 20260903084901 | 69 | 346 | 0.0 | 0.0 | 0.00 | 0.00 | 0.00 | 91 | 1010.4 |
| 20260903084355 | 69 | 345 | 0.0 | 0.9 | 0.00 | 0.00 | 0.00 | 91 | 1010.3 |
| 20260903084119 | 69 | 75 | 0.0 | 0.9 | 0.00 | 0.00 | 0.00 | 92 | 1010.4 |
| 20260903083342 | 69 | 78 | 0.0 | 0.0 | 0.00 | 0.00 | 0.00 | 92 | 1010.6 |
| 20260903082837 | 69 | 77 | 0.0 | 0.0 | 0.00 | 0.00 | 0.00 | 92 | 1010.6 |
| 20260903082331 | 69 | 77 | 0.0 | 0.0 | 0.00 | 0.00 | 0.00 | 91 | 1010.8 |
| 20260903081825 | 69 | 78 | 0.0 | 0.0 | 0.00 | 0.00 | 0.00 | 91 | 1010.9 |
| 20260903081319 | 69 | 78 | 0.0 | 0.0 | 0.00 | 0.00 | 0.00 | 90 | 1010.8 |
| 20260903080818 | 69 | 77 | 0.0 | 0.0 | 0.00 | 0.00 | 0.00 | 90 | 1010.8 |
| 20260903080813 | 69 | 77 | 0.0 | 0.0 | 0.00 | 0.00 | 0.00 | 90 | 1010.8 |
| 20260903075801 | 69 | 77 | 0.0 | 0.0 | 0.00 | 0.00 | 0.00 | 90 | 1010.8 |
| 20260903075254 | 69 | 78 | 0.0 | 0.0 | 0.00 | 0.00 | 0.00 | 90 | 1010.7 |
| 20260903074749 | 70 | 78 | 0.0 | 0.0 | 0.00 | 0.00 | 0.00 | 90 | 1010.8 |
| 20260903074242 | 70 | 78 | 0.0 | 0.0 | 0.00 | 0.00 | 0.00 | 89 | 1010.8 |
| 20260903073736 | 70 | 78 | 0.0 | 0.0 | 0.00 | 0.00 | 0.00 | 88 | 1010.9 |
| 20260903073230 | 70 | 78 | 0.0 | 0.0 | 0.00 | 0.00 | 0.00 | 88 | 1010.9 |
| 20260903072725 | 71 | 77 | 0.0 | 0.0 | 0.00 | 0.00 | 0.00 | 88 | 1010.9 |
| 20260903072219 | 71 | 78 | 0.0 | 0.0 | 0.00 | 0.00 | 0.00 | 87 | 1010.9 |
| 20260903071712 | 71 | 78 | 0.0 | 0.0 | 0.00 | 0.00 | 0.00 | 87 | 1011.0 |
| 20260903071206 | 71 | 77 | 0.0 | 0.0 | 0.00 | 0.00 | 0.00 | 87 | 1011.0 |
| 20260903070700 | 71 | 77 | 0.0 | 0.9 | 0.00 | 0.00 | 0.00 | 87 | 1011.0 |
| 20260903070154 | 71 | 77 | 0.0 | 0.9 | 0.00 | 0.00 | 0.00 | 87 | 1011.0 |
| 20260903065648 | 71 | 77 | 0.0 | 0.0 | 0.00 | 0.00 | 0.00 | 87 | 1011.0 |
| 20260903065142 | 71 | 78 | 0.0 | 0.9 | 0.00 | 0.00 | 0.00 | 88 | 1011.0 |
| 20260903064637 | 71 | 77 | 0.0 | 0.9 | 0.00 | 0.00 | 0.00 | 88 | 1011.0 |
| 20260903064131 | 71 | 71 | 0.0 | 0.0 | 0.00 | 0.00 | 0.00 | 88 | 1010.9 |
| 20260903063857 | 71 | 282 | 0.0 | 0.0 | 0.00 | 0.00 | 0.00 | 88 | 1010.9 |
| 20260903063119 | 71 | 283 | 0.0 | 0.0 | 0.00 | 0.00 | 0.00 | 88 | 1011.1 |
| 20260903062612 | 71 | 283 | 0.0 | 0.0 | 0.00 | 0.00 | 0.00 | 89 | 1011.1 |
| 20260903062106 | 71 | 283 | 0.0 | 0.0 | 0.00 | 0.00 | 0.00 | 88 | 1011.3 |
| 20260903061601 | 71 | 283 | 0.0 | 0.0 | 0.00 | 0.00 | 0.00 | 88 | 1011.3 |
| 20260903061055 | 71 | 282 | 0.0 | 0.0 | 0.00 | 0.00 | 0.00 | 88 | 1011.4 |
| 20260903060552 | 71 | 282 | 0.0 | 0.0 | 0.00 | 0.00 | 0.00 | 87 | 1011.4 |
| 20260903060049 | 71 | 283 | 0.0 | 0.0 | 0.00 | 0.00 | 0.00 | 87 | 1011.3 |
| 20260903055549 | 71 | 283 | 0.0 | 0.0 | 0.00 | 0.00 | 0.00 | 87 | 1011.3 |
| 20260903055049 | 71 | 282 | 0.0 | 0.0 | 0.00 | 0.00 | 0.00 | 87 | 1011.3 |
| 20260903054550 | 71 | 282 | 0.0 | 0.9 | 0.00 | 0.00 | 0.00 | 88 | 1011.2 |
| 20260903054050 | 71 | 282 | 0.0 | 0.9 | 0.00 | 0.00 | 0.00 | 88 | 1011.3 |
| 20260903053550 | 70 | 4 | 0.0 | 0.0 | 0.00 | 0.00 | 0.00 | 89 | 1011.2 |
| 20260903053049 | 70 | 4 | 0.0 | 0.0 | 0.00 | 0.00 | 0.00 | 89 | 1011.3 |
| 20260903052547 | 70 | 3 | 0.0 | 0.0 | 0.00 | 0.00 | 0.00 | 89 | 1011.3 |
| 20260903052316 | 69 | 11 | 0.0 | 0.0 | 0.00 | 0.00 | 0.00 | 89 | 1011.4 |
| 20260903051544 | 69 | 11 | 0.0 | 0.0 | 0.00 | 0.00 | 0.00 | 88 | 1011.3 |
| 20260903051043 | 69 | 11 | 0.0 | 0.0 | 0.00 | 0.00 | 0.00 | 87 | 1011.4 |
| 20260903050540 | 69 | 11 | 0.0 | 0.0 | 0.00 | 0.00 | 0.00 | 87 | 1011.4 |
| 20260903050038 | 70 | 11 | 0.0 | 0.0 | 0.00 | 0.00 | 0.00 | 86 | 1011.4 |
| 20260903045535 | 70 | 11 | 0.0 | 0.0 | 0.00 | 0.00 | 0.00 | 86 | 1011.5 |
| 20260903045035 | 70 | 11 | 0.0 | 0.0 | 0.00 | 0.00 | 0.00 | 85 | 1011.6 |
| 20260903044532 | 71 | 11 | 0.0 | 0.0 | 0.00 | 0.00 | 0.00 | 84 | 1011.5 |
| 20260903044031 | 71 | 11 | 0.0 | 0.0 | 0.00 | 0.00 | 0.00 | 83 | 1011.6 |
| 20260903043529 | 72 | 11 | 0.0 | 0.0 | 0.00 | 0.00 | 0.00 | 82 | 1011.6 |
| 20260903043025 | 72 | 11 | 0.0 | 0.0 | 0.00 | 0.00 | 0.00 | 82 | 1011.5 |
| 20260903042527 | 72 | 11 | 0.0 | 0.0 | 0.00 | 0.00 | 0.00 | 83 | 1011.4 |
| 20260903042253 | 73 | 11 | 0.0 | 0.0 | 0.00 | 0.00 | 0.00 | 82 | 1011.6 |
| 20260903041745 | 73 | 11 | 0.0 | 0.0 | 0.00 | 0.00 | 0.00 | 82 | 1011.6 |
| 20260903041241 | 73 | 11 | 0.0 | 0.0 | 0.00 | 0.00 | 0.00 | 81 | 1011.5 |
| 20260903040502 | 73 | 11 | 0.0 | 0.0 | 0.00 | 0.00 | 0.00 | 81 | 1011.5 |
| 20260903035957 | 73 | 11 | 0.0 | 0.0 | 0.00 | 0.00 | 0.00 | 81 | 1011.6 |
| 20260903035456 | 74 | 11 | 0.0 | 0.0 | 0.00 | 0.00 | 0.00 | 80 | 1011.5 |
| 20260903034953 | 74 | 11 | 0.0 | 0.0 | 0.00 | 0.00 | 0.00 | 79 | 1011.6 |
| 20260903034453 | 74 | 12 | 0.0 | 0.0 | 0.00 | 0.00 | 0.00 | 79 | 1011.6 |
| 20260903033949 | 74 | 11 | 0.0 | 0.0 | 0.00 | 0.00 | 0.00 | 79 | 1011.6 |
| 20260903033449 | 74 | 11 | 0.0 | 0.0 | 0.00 | 0.00 | 0.00 | 79 | 1011.6 |
| 20260903033217 | 74 | 11 | 0.0 | 0.0 | 0.00 | 0.00 | 0.00 | 79 | 1011.7 |
| 20260903032445 | 74 | 12 | 0.0 | 0.0 | 0.00 | 0.00 | 0.00 | 80 | 1011.7 |
| 20260903031942 | 74 | 5 | 0.0 | 0.0 | 0.00 | 0.00 | 0.00 | 78 | 1011.7 |
| 20260903031440 | 74 | 5 | 0.0 | 0.0 | 0.00 | 0.00 | 0.00 | 79 | 1011.7 |
| 20260903030940 | 74 | 4 | 0.0 | 0.0 | 0.00 | 0.00 | 0.00 | 78 | 1011.6 |
| 20260903030713 | 74 | 5 | 0.0 | 0.0 | 0.00 | 0.00 | 0.00 | 79 | 1011.7 |
| 20260903025941 | 74 | 5 | 0.0 | 0.0 | 0.00 | 0.00 | 0.00 | 78 | 1011.7 |
| 20260903025441 | 74 | 5 | 0.0 | 0.0 | 0.00 | 0.00 | 0.00 | 78 | 1011.7 |
| 20260903024939 | 74 | 5 | 0.0 | 0.0 | 0.00 | 0.00 | 0.00 | 79 | 1011.7 |
| 20260903024439 | 74 | 5 | 0.0 | 0.0 | 0.00 | 0.00 | 0.00 | 79 | 1011.7 |
| 20260903023940 | 74 | 5 | 0.0 | 0.0 | 0.00 | 0.00 | 0.00 | 79 | 1011.8 |
| 20260903023831 | 74 | 4 | 0.0 | 0.0 | 0.00 | 0.00 | 0.00 | 79 | 1011.8 |
| 20260903023721 | 74 | 5 | 0.0 | 0.0 | 0.00 | 0.00 | 0.00 | 79 | 1011.8 |
| 20260903022709 | 74 | 5 | 0.0 | 0.0 | 0.00 | 0.00 | 0.00 | 78 | 1011.7 |
| 20260903021938 | 75 | 5 | 0.0 | 0.0 | 0.00 | 0.00 | 0.00 | 78 | 1011.7 |
| 20260903021437 | 75 | 5 | 0.0 | 0.0 | 0.00 | 0.00 | 0.00 | 77 | 1011.6 |
| 20260903020935 | 75 | 6 | 0.0 | 0.0 | 0.00 | 0.00 | 0.00 | 77 | 1011.6 |
| 20260903020707 | 75 | 5 | 0.0 | 0.0 | 0.00 | 0.00 | 0.00 | 76 | 1011.5 |
| 20260903015934 | 76 | 5 | 0.0 | 0.0 | 0.00 | 0.00 | 0.00 | 76 | 1011.5 |
| 20260903015431 | 76 | 5 | 0.0 | 0.0 | 0.00 | 0.00 | 0.00 | 75 | 1011.4 |
| 20260903014931 | 76 | 5 | 0.0 | 0.0 | 0.00 | 0.00 | 0.00 | 75 | 1011.4 |
| 20260903014430 | 76 | 5 | 0.0 | 0.0 | 0.00 | 0.00 | 0.00 | 74 | 1011.3 |
| 20260903014201 | 76 | 5 | 0.0 | 0.0 | 0.00 | 0.00 | 0.00 | 73 | 1011.3 |
| 20260903013706 | 77 | 5 | 0.0 | 0.0 | 0.00 | 0.00 | 0.00 | 72 | 1011.2 |
| 20260903012930 | 77 | 5 | 0.0 | 0.0 | 0.00 | 0.00 | 0.00 | 72 | 1011.1 |
| 20260903012429 | 77 | 5 | 0.0 | 0.0 | 0.00 | 0.00 | 0.00 | 71 | 1011.1 |
| 20260903011928 | 78 | 5 | 0.0 | 0.0 | 0.00 | 0.00 | 0.00 | 70 | 1011.1 |
| 20260903011427 | 78 | 5 | 0.0 | 0.0 | 0.00 | 0.00 | 0.00 | 69 | 1011.1 |
| 20260903010927 | 79 | 6 | 0.0 | 0.0 | 0.00 | 0.00 | 0.00 | 68 | 1011.0 |
| 20260903010426 | 79 | 5 | 0.0 | 0.0 | 0.00 | 0.00 | 0.00 | 67 | 1011.0 |
| 20260903005926 | 80 | 5 | 0.0 | 0.0 | 0.00 | 0.00 | 0.00 | 67 | 1010.9 |
| 20260903005423 | 80 | 5 | 0.0 | 0.0 | 0.00 | 0.00 | 0.00 | 65 | 1011.0 |
| 20260903005156 | 81 | 5 | 0.0 | 0.0 | 0.00 | 0.00 | 0.00 | 64 | 1010.9 |
| 20260903004425 | 81 | 5 | 0.0 | 0.0 | 0.00 | 0.00 | 0.00 | 64 | 1011.0 |
| 20260903003924 | 81 | 5 | 0.0 | 0.9 | 0.00 | 0.00 | 0.00 | 63 | 1011.0 |
| 20260903003425 | 82 | 5 | 0.0 | 0.9 | 0.00 | 0.00 | 0.00 | 63 | 1011.1 |
| 20260903002924 | 82 | 5 | 0.0 | 1.7 | 0.00 | 0.00 | 0.00 | 62 | 1011.0 |
| 20260903002656 | 82 | 5 | 0.0 | 1.7 | 0.00 | 0.00 | 0.00 | 62 | 1011.0 |
| 20260903001924 | 82 | 343 | 0.0 | 0.9 | 0.00 | 0.00 | 0.00 | 61 | 1011.0 |
| 20260903001422 | 83 | 345 | 0.0 | 0.9 | 0.00 | 0.00 | 0.00 | 61 | 1011.0 |
| 20260903000922 | 83 | 46 | 0.0 | 0.9 | 0.00 | 0.00 | 0.00 | 60 | 1011.0 |
| 20260903000421 | 83 | 49 | 0.0 | 0.9 | 0.00 | 0.00 | 0.00 | 60 | 1010.9 |
| 20260903000152 | 83 | 49 | 0.0 | 0.9 | 0.00 | 0.00 | 0.00 | 59 | 1010.9 |
| 20260902235654 | 84 | 59 | 0.0 | 1.7 | 0.00 | 0.00 | 0.00 | 59 | 1011.0 |
| 20260902235149 | 84 | 328 | 0.0 | 1.7 | 0.00 | 0.00 | 0.00 | 58 | 1010.9 |
| 20260902234649 | 85 | 20 | 0.0 | 1.7 | 0.00 | 0.00 | 0.00 | 57 | 1010.9 |
| 20260902233917 | 85 | 349 | 0.0 | 0.9 | 0.00 | 0.00 | 0.00 | 56 | 1011.0 |
| 20260902233418 | 85 | 131 | 0.0 | 0.9 | 0.00 | 0.00 | 0.00 | 55 | 1011.0 |
| 20260902232919 | 86 | 356 | 0.0 | 0.9 | 0.00 | 0.00 | 0.00 | 54 | 1011.0 |
| 20260902232417 | 86 | 348 | 0.0 | 2.6 | 0.00 | 0.00 | 0.00 | 53 | 1011.0 |
| 20260902231917 | 87 | 356 | 0.0 | 2.6 | 0.00 | 0.00 | 0.00 | 51 | 1011.0 |
| 20260902231648 | 88 | 70 | 0.0 | 2.6 | 0.00 | 0.00 | 0.00 | 51 | 1011.0 |
| 20260902230919 | 88 | 338 | 0.0 | 2.6 | 0.00 | 0.00 | 0.00 | 50 | 1011.1 |
| 20260902230415 | 88 | 113 | 0.0 | 2.6 | 0.00 | 0.00 | 0.00 | 51 | 1011.1 |
| 20260902225915 | 88 | 89 | 0.0 | 2.6 | 0.00 | 0.00 | 0.00 | 51 | 1011.1 |
| 20260902225414 | 88 | 12 | 0.0 | 2.6 | 0.00 | 0.00 | 0.00 | 50 | 1011.1 |
| 20260902224915 | 88 | 350 | 0.0 | 2.6 | 0.00 | 0.00 | 0.00 | 52 | 1011.1 |
| 20260902224415 | 89 | 350 | 0.0 | 2.6 | 0.00 | 0.00 | 0.00 | 49 | 1011.1 |
| 20260902223914 | 89 | 23 | 0.0 | 2.6 | 0.00 | 0.00 | 0.00 | 49 | 1011.1 |
| 20260902223415 | 89 | 100 | 0.0 | 2.6 | 0.00 | 0.00 | 0.00 | 50 | 1011.1 |
| 20260902223149 | 89 | 103 | 0.0 | 2.6 | 0.00 | 0.00 | 0.00 | 49 | 1011.1 |
| 20260902222415 | 89 | 141 | 0.0 | 2.6 | 0.00 | 0.00 | 0.00 | 50 | 1011.1 |
| 20260902221910 | 89 | 76 | 0.0 | 1.7 | 0.00 | 0.00 | 0.00 | 51 | 1011.2 |
| 20260902221409 | 89 | 76 | 0.0 | 2.6 | 0.00 | 0.00 | 0.00 | 50 | 1011.2 |
| 20260902221144 | 89 | 315 | 0.0 | 3.5 | 0.00 | 0.00 | 0.00 | 49 | 1011.2 |
| 20260902220411 | 89 | 77 | 0.0 | 3.5 | 0.00 | 0.00 | 0.00 | 50 | 1011.2 |
| 20260902215910 | 89 | 322 | 0.0 | 2.6 | 0.00 | 0.00 | 0.00 | 50 | 1011.2 |
| 20260902215409 | 89 | 82 | 0.0 | 2.6 | 0.00 | 0.00 | 0.00 | 52 | 1011.3 |
| 20260902214910 | 89 | 83 | 0.0 | 2.6 | 0.00 | 0.00 | 0.00 | 52 | 1011.3 |
| 20260902214409 | 88 | 119 | 0.0 | 2.6 | 0.00 | 0.00 | 0.00 | 53 | 1011.3 |
| 20260902213910 | 88 | 346 | 0.0 | 2.6 | 0.00 | 0.00 | 0.00 | 51 | 1011.3 |
| 20260902213409 | 89 | 354 | 0.0 | 2.6 | 0.00 | 0.00 | 0.00 | 50 | 1011.3 |
| 20260902213142 | 89 | 22 | 0.0 | 3.5 | 0.00 | 0.00 | 0.00 | 54 | 1011.3 |
| 20260902212642 | 88 | 91 | 0.0 | 3.5 | 0.00 | 0.00 | 0.00 | 55 | 1011.3 |
| 20260902212531 | 88 | 349 | 0.0 | 1.7 | 0.00 | 0.00 | 0.00 | 52 | 1011.3 |
| 20260902211410 | 88 | 349 | 0.0 | 1.7 | 0.00 | 0.00 | 0.00 | 53 | 1011.3 |
| 20260902210911 | 87 | 356 | 0.9 | 1.7 | 0.00 | 0.00 | 0.00 | 55 | 1011.4 |
| 20260902210409 | 87 | 356 | 0.9 | 2.6 | 0.00 | 0.00 | 0.00 | 54 | 1011.3 |
| 20260902210141 | 87 | 345 | 0.0 | 2.6 | 0.00 | 0.00 | 0.00 | 54 | 1011.3 |
| 20260902205409 | 88 | 333 | 0.0 | 2.6 | 0.00 | 0.00 | 0.00 | 54 | 1011.3 |
| 20260902205143 | 87 | 350 | 0.9 | 5.2 | 0.00 | 0.00 | 0.00 | 54 | 1011.4 |
| 20260902204411 | 87 | 76 | 0.9 | 5.2 | 0.00 | 0.00 | 0.00 | 54 | 1011.5 |
| 20260902203909 | 87 | 347 | 0.0 | 2.6 | 0.00 | 0.00 | 0.00 | 55 | 1011.5 |
| 20260902203409 | 88 | 328 | 0.0 | 2.6 | 0.00 | 0.00 | 0.00 | 56 | 1011.6 |
| 20260902202909 | 88 | 257 | 0.9 | 5.2 | 0.00 | 0.00 | 0.00 | 55 | 1011.6 |
| 20260902202411 | 88 | 152 | 0.9 | 5.2 | 0.00 | 0.00 | 0.00 | 53 | 1011.6 |
| 20260902201909 | 88 | 118 | 0.0 | 1.7 | 0.00 | 0.00 | 0.00 | 54 | 1011.5 |
| 20260902201411 | 88 | 93 | 0.0 | 1.7 | 0.00 | 0.00 | 0.00 | 52 | 1011.5 |
| 20260902200914 | 88 | 49 | 0.0 | 1.7 | 0.00 | 0.00 | 0.00 | 55 | 1011.6 |
| 20260902200411 | 87 | 126 | 0.0 | 3.5 | 0.00 | 0.00 | 0.00 | 55 | 1011.7 |
| 20260902195910 | 87 | 108 | 0.0 | 3.5 | 0.00 | 0.00 | 0.00 | 51 | 1011.7 |
| 20260902195640 | 87 | 257 | 0.0 | 1.7 | 0.00 | 0.00 | 0.00 | 51 | 1011.8 |
| 20260902194907 | 87 | 204 | 0.0 | 3.5 | 0.00 | 0.00 | 0.00 | 54 | 1011.9 |
| 20260902194638 | 87 | 333 | 0.9 | 3.5 | 0.00 | 0.00 | 0.00 | 54 | 1011.8 |
| 20260902194526 | 87 | 87 | 0.9 | 2.6 | 0.00 | 0.00 | 0.00 | 53 | 1011.9 |
| 20260902193406 | 86 | 214 | 0.9 | 2.6 | 0.00 | 0.00 | 0.00 | 53 | 1011.9 |
| 20260902192901 | 86 | 75 | 0.9 | 2.6 | 0.00 | 0.00 | 0.00 | 55 | 1011.9 |
| 20260902192633 | 86 | 218 | 0.9 | 3.5 | 0.00 | 0.00 | 0.00 | 53 | 1012.0 |
| 20260902191903 | 85 | 113 | 0.0 | 3.5 | 0.00 | 0.00 | 0.00 | 55 | 1012.1 |
| 20260902191401 | 85 | 15 | 0.0 | 1.7 | 0.00 | 0.00 | 0.00 | 57 | 1012.1 |
| 20260902190901 | 85 | 349 | 0.0 | 1.7 | 0.00 | 0.00 | 0.00 | 57 | 1012.3 |
| 20260902190403 | 85 | 82 | 0.0 | 2.6 | 0.00 | 0.00 | 0.00 | 54 | 1012.3 |
| 20260902185901 | 86 | 347 | 0.0 | 2.6 | 0.00 | 0.00 | 0.00 | 53 | 1012.3 |
| 20260902185357 | 86 | 117 | 0.9 | 3.5 | 0.00 | 0.00 | 0.00 | 54 | 1012.3 |
| 20260902184858 | 85 | 356 | 0.9 | 3.5 | 0.00 | 0.00 | 0.00 | 54 | 1012.2 |
| 20260902184350 | 85 | 88 | 0.9 | 4.3 | 0.00 | 0.00 | 0.00 | 55 | 1012.4 |
| 20260902183845 | 85 | 153 | 0.9 | 4.3 | 0.00 | 0.00 | 0.00 | 57 | 1012.4 |
| 20260902183344 | 85 | 215 | 0.9 | 2.6 | 0.00 | 0.00 | 0.00 | 57 | 1012.5 |
| 20260902183115 | 85 | 359 | 0.0 | 2.6 | 0.00 | 0.00 | 0.00 | 59 | 1012.6 |
| 20260902182341 | 84 | 324 | 0.0 | 2.6 | 0.00 | 0.00 | 0.00 | 57 | 1012.7 |
| 20260902181842 | 84 | 120 | 0.9 | 2.6 | 0.00 | 0.00 | 0.00 | 55 | 1012.8 |
| 20260902181341 | 85 | 335 | 0.9 | 5.2 | 0.00 | 0.00 | 0.00 | 56 | 1012.8 |
| 20260902181109 | 84 | 152 | 0.9 | 5.2 | 0.00 | 0.00 | 0.00 | 55 | 1012.8 |
| 20260902180610 | 84 | 240 | 0.9 | 4.3 | 0.00 | 0.00 | 0.00 | 58 | 1012.8 |
| 20260902180503 | 84 | 131 | 0.9 | 5.2 | 0.00 | 0.00 | 0.00 | 58 | 1012.8 |
| 20260902175337 | 85 | 89 | 0.9 | 5.2 | 0.00 | 0.00 | 0.00 | 57 | 1012.8 |
| 20260902174834 | 85 | 331 | 0.0 | 0.9 | 0.00 | 0.00 | 0.00 | 60 | 1012.7 |
| 20260902174334 | 84 | 56 | 0.0 | 0.9 | 0.00 | 0.00 | 0.00 | 60 | 1012.8 |
| 20260902174103 | 84 | 6 | 0.0 | 3.5 | 0.00 | 0.00 | 0.00 | 58 | 1012.9 |
| 20260902173604 | 84 | 12 | 0.0 | 3.5 | 0.00 | 0.00 | 0.00 | 60 | 1013.1 |
| 20260902172832 | 83 | 36 | 0.0 | 2.6 | 0.00 | 0.00 | 0.00 | 61 | 1013.2 |
| 20260902172332 | 83 | 204 | 0.0 | 2.6 | 0.00 | 0.00 | 0.00 | 60 | 1013.4 |
| 20260902172106 | 82 | 329 | 0.9 | 2.6 | 0.00 | 0.00 | 0.00 | 59 | 1013.4 |
| 20260902171328 | 83 | 104 | 0.0 | 2.6 | 0.00 | 0.00 | 0.00 | 58 | 1013.1 |
| 20260902170826 | 83 | 304 | 0.0 | 1.7 | 0.00 | 0.00 | 0.00 | 61 | 1013.1 |
| 20260902170818 | 82 | 335 | 0.0 | 2.6 | 0.00 | 0.00 | 0.00 | 62 | 1013.4 |
| 20260902165811 | 82 | 16 | 0.0 | 3.5 | 0.00 | 0.00 | 0.00 | 61 | 1013.4 |
| 20260902165309 | 82 | 335 | 0.9 | 3.5 | 0.00 | 0.00 | 0.00 | 63 | 1013.2 |
| 20260902164803 | 82 | 345 | 0.0 | 2.6 | 0.00 | 0.00 | 0.00 | 63 | 1013.1 |
| 20260902164537 | 81 | 108 | 0.0 | 4.3 | 0.00 | 0.00 | 0.00 | 65 | 1013.2 |
| 20260902163802 | 81 | 75 | 0.0 | 4.3 | 0.00 | 0.00 | 0.00 | 64 | 1013.2 |
| 20260902163259 | 81 | 95 | 0.0 | 3.5 | 0.00 | 0.00 | 0.00 | 65 | 1013.2 |